Location: Milano
(45.4670°N, 9.2000°E)
Time: 19:08:13
(UTC+02:00)

ISS - Pass Details

Date: 15 May 2021
Orbit: 417 x 422 km, 51.6° (Epoch: 14 June)

Event Time Altitude Azimuth Distance (km) Brightness Sun altitude
Rises 21:59:58 0° 220° (SW) 2,350 0.0 -11.2°
Reaches altitude 10° 22:02:08 10° 212° (SSW) 1,491 -1.1 -11.5°
Maximum altitude 22:05:16 38° 142° (SE) 654 -3.3 -11.9°
Drops below altitude 10° 22:08:25 10° 73° (ENE) 1,503 -1.2 -12.3°
Sets 22:10:36 0° 65° (ENE) 2,371 -0.1 -12.5°
